Wind_Speed
27 26 25 25 25 25 25 25 24 25 24 24 24 24 24 23 23 23 23 23 23 24 25 26 26 27 27 27 27 27 28 29 30 30 30 30 31 32 32 33 34 35 36 37 38 40 41 42 42 42 41 41 40 38 37 38 38 38 38 38 37 37 38
29 27 26 27 27 27 27 27 27 28 26 26 26 26 26 26 25 25 25 25 25 26 27 27 28 28 29 29 29 29 30 31 32 32 32 32 32 33 34 35 36 37 38 39 41 43 44 43 43 43 43 42 42 42 41 41 41 42 42 41 41 40 40
31 29 28 29 30 30 30 30 30 30 29 28 29 28 27 27 27 27 27 27 27 28 28 29 29 30 30 30 31 31 32 33 33 33 33 33 34 35 36 37 38 39 40 42 43 45 45 44 45 46 45 44 44 44 45 45 45 46 45 43 43 42 42
32 30 31 32 32 32 32 32 32 31 31 31 31 31 29 29 29 29 29 29 29 29 30 30 31 31 32 32 32 33 34 34 35 35 35 35 36 37 39 39 39 40 42 43 45 46 46 46 47 48 46 45 45 45 46 47 46 46 46 44 43 42 43
33 32 34 35 35 35 35 34 33 32 33 33 33 33 32 32 31 31 30 30 31 31 31 32 32 33 33 34 34 34 35 36 36 36 37 38 39 40 41 41 41 42 43 45 47 47 48 48 48 47 47 46 45 46 47 47 45 43 44 44 43 42 42
37 35 36 37 37 37 37 36 35 34 35 35 35 35 34 34 33 32 32 32 32 33 33 34 34 35 35 35 35 36 36 37 38 38 39 40 41 42 43 43 43 44 45 47 48 49 50 50 49 48 46 46 46 47 47 47 46 44 42 42 44 43 41
41 38 39 40 39 39 39 38 37 36 36 37 37 37 36 36 35 34 34 34 35 35 35 35 36 37 36 36 37 37 38 38 39 40 41 42 43 44 44 45 45 46 47 48 50 51 51 50 49 48 46 45 46 47 47 47 47 46 43 42 43 43 42
43 42 43 43 41 41 40 40 39 38 38 39 39 38 38 37 37 37 37 37 37 37 37 37 38 39 38 38 39 39 39 40 41 42 43 44 44 45 46 47 47 48 49 50 51 52 52 51 50 48 46 46 45 45 46 46 47 46 45 44 44 43 44
46 46 45 45 44 43 42 42 42 41 41 41 41 40 39 39 39 39 39 39 39 39 39 39 40 40 40 40 41 41 41 42 43 44 45 46 46 46 47 48 49 50 51 52 53 53 53 52 50 49 47 46 45 45 46 47 48 48 47 47 47 46 46
50 50 48 48 47 45 43 43 44 44 43 42 42 42 42 42 42 41 41 41 40 40 41 42 42 42 42 43 43 43 44 44 45 46 47 47 47 48 49 50 50 51 52 53 54 54 54 52 51 50 48 47 46 46 47 49 50 50 50 50 50 48 48
54 53 50 50 49 46 44 43 45 45 45 44 44 44 44 44 44 43 43 42 42 42 43 44 44 44 45 45 45 46 46 46 47 48 49 49 49 50 51 51 52 53 53 55 55 55 54 53 52 50 48 48 48 48 49 51 51 52 52 52 50 49 48
58 55 51 51 49 47 44 43 45 47 47 46 46 47 47 47 46 46 45 45 45 45 46 46 47 47 47 47 48 48 48 48 49 50 51 51 51 51 52 53 54 55 55 56 55 55 55 53 53 51 49 48 49 49 50 50 52 54 54 52 50 48 46
60 56 53 53 51 49 47 46 47 48 48 48 48 49 50 49 48 48 47 47 47 48 49 49 50 50 50 50 50 51 51 51 51 52 53 54 53 53 54 55 56 57 58 57 56 56 55 54 53 51 50 49 49 50 50 49 52 57 57 55 51 46 46
61 59 57 55 53 51 49 50 50 50 50 50 50 51 51 51 50 49 49 49 50 51 52 52 52 53 53 53 53 53 53 53 54 55 55 56 56 56 56 56 57 58 59 58 57 56 56 55 53 51 51 50 50 51 52 51 55 59 58 54 50 46 47
62 61 59 57 55 53 52 52 53 52 52 52 52 53 53 52 52 51 51 52 52 53 54 55 55 55 55 55 56 56 56 56 56 57 57 58 58 58 58 58 58 59 60 59 58 57 56 55 53 52 52 51 52 54 54 55 58 59 58 56 53 51 52
63 62 60 59 57 56 55 55 56 56 55 54 54 54 54 54 53 53 54 54 55 56 57 57 58 57 58 58 58 58 58 59 59 59 59 59 59 59 59 59 60 60 60 60 58 57 56 55 54 53 53 53 54 54 57 60 59 58 60 58 55 55 58
65 63 62 61 59 57 57 57 58 59 58 57 56 56 56 55 55 55 56 57 58 58 59 60 60 59 60 61 60 60 61 61 61 61 60 60 61 61 61 61 61 61 61 60 58 58 57 55 54 54 55 54 53 54 59 62 59 59 61 58 54 58 61
68 66 63 62 61 59 57 57 57 58 59 58 57 57 58 57 57 58 59 60 61 61 61 62 62 62 63 63 62 62 63 64 63 63 62 62 62 62 62 62 62 61 61 60 59 58 57 57 56 55 56 56 55 57 61 62 61 62 61 58 57 60 62
71 68 65 63 62 61 59 59 60 60 59 59 58 59 59 59 60 60 61 63 64 63 63 63 64 65 65 65 64 65 66 66 65 65 64 63 63 64 64 63 62 62 61 60 59 58 58 58 58 58 59 59 59 61 63 63 64 63 59 57 59 62 64
74 70 66 64 64 62 61 63 65 64 62 61 59 60 61 61 62 64 65 66 67 65 65 65 66 67 67 67 67 67 68 67 66 66 66 65 65 66 65 65 64 63 62 61 60 59 58 59 59 60 61 61 62 63 64 64 64 60 54 54 58 63 68
75 73 69 67 67 65 65 67 68 67 66 63 61 61 63 64 65 67 68 69 69 68 68 68 68 68 69 69 69 70 70 69 68 68 67 67 67 67 67 66 65 64 64 62 61 60 60 60 61 61 62 63 64 64 65 66 63 54 50 56 63 68 71
78 75 72 70 69 68 69 71 71 70 70 67 64 64 65 66 68 70 70 71 71 71 71 70 70 70 71 71 71 72 71 70 70 69 69 69 70 69 68 67 67 66 65 64 63 62 62 62 62 63 64 65 66 66 66 66 62 56 57 65 70 71 70
82 79 76 75 74 72 73 75 74 74 73 70 66 65 67 70 72 72 72 73 73 73 73 72 72 72 72 73 73 73 73 72 72 72 71 71 72 71 70 69 68 67 66 66 65 64 64 64 64 65 66 66 67 68 67 65 63 64 67 70 70 69 69
84 81 77 77 77 77 77 77 75 76 75 72 69 67 69 72 74 74 74 74 74 75 75 74 74 74 75 75 75 75 74 74 74 73 73 73 73 73 72 71 70 69 68 67 66 66 66 66 66 67 68 68 68 68 68 67 67 69 71 70 69 69 70
89 85 80 78 79 79 79 79 78 78 78 75 71 69 71 74 76 76 76 75 75 76 76 76 76 76 77 77 77 77 76 76 76 75 75 75 74 74 73 72 71 70 70 69 68 68 68 68 68 69 70 70 68 66 68 70 70 71 72 70 70 70 69
93 90 85 84 83 82 81 80 80 80 79 77 75 73 74 76 77 77 77 76 77 77 77 77 77 78 78 78 78 79 78 77 77 77 77 76 75 74 74 73 72 71 71 70 69 69 69 70 70 71 72 72 70 68 69 71 72 72 73 72 71 69 68
95 92 87 85 84 83 82 82 82 81 80 79 77 77 76 77 78 78 78 78 78 78 78 79 79 79 79 79 80 80 79 78 78 77 77 77 76 75 73 72 72 72 72 72 71 71 71 72 72 73 74 74 73 72 72 72 73 74 73 72 70 68 66
97 94 89 84 83 83 84 83 82 81 81 80 79 79 78 78 78 78 78 79 79 79 79 79 79 80 80 80 81 81 80 79 79 78 77 76 76 74 73 72 73 72 72 73 73 73 74 74 74 75 75 76 76 76 75 75 75 74 73 73 71 67 65
97 94 90 87 86 85 84 83 82 81 82 81 80 80 79 79 79 79 80 80 80 79 79 79 80 80 81 82 81 80 80 79 79 78 77 76 75 74 73 72 73 73 73 74 74 75 75 75 76 76 77 77 77 77 77 77 77 75 75 75 72 68 65
93 92 90 89 88 86 85 83 83 83 82 82 81 81 80 79 79 80 81 80 80 79 79 79 80 79 79 80 80 79 79 79 78 77 76 75 74 74 73 73 73 74 75 75 75 76 76 77 77 78 79 78 78 78 78 78 77 76 76 75 71 68 66
91 90 89 88 87 86 86 85 84 83 83 83 82 81 80 80 80 81 80 80 79 78 78 78 78 78 77 77 78 79 79 78 78 77 75 74 74 73 73 73 74 75 76 76 77 77 77 78 79 79 80 80 79 78 77 78 78 78 76 74 71 69 69
91 90 89 88 87 87 86 85 84 83 83 83 82 81 81 81 81 81 80 79 78 78 77 77 77 77 77 79 80 80 79 78 77 76 75 74 74 73 74 75 76 76 77 78 79 79 79 79 79 80 80 80 79 78 78 78 78 77 75 73 71 70 71
91 90 90 88 87 86 85 84 83 83 83 83 82 82 82 82 81 80 79 78 78 78 77 77 77 77 78 80 80 79 78 77 76 75 75 75 75 75 76 77 77 78 79 79 80 81 80 79 79 80 81 80 79 79 78 77 75 73 72 72 71 70 69
91 90 90 88 87 86 85 83 82 82 83 83 83 83 82 81 80 79 79 78 79 78 77 76 75 74 75 78 79 78 77 76 75 75 75 76 76 77 78 79 80 80 80 81 81 81 80 80 80 80 81 81 80 79 77 75 72 71 72 73 72 70 68
92 91 89 88 87 86 84 83 82 82 82 82 82 82 82 81 80 79 79 78 78 78 77 75 73 72 74 77 78 77 76 76 76 76 76 77 78 79 80 80 81 81 82 82 82 81 80 80 80 80 81 81 80 77 75 74 73 72 73 73 73 72 72
89 88 87 87 86 85 84 82 82 81 81 82 82 81 81 81 80 79 79 78 77 77 77 76 75 74 76 77 77 76 76 77 77 77 77 78 79 80 81 81 81 82 82 82 81 81 80 80 80 80 81 80 79 78 79 79 78 76 76 76 76 76 77
83 83 84 84 84 83 83 82 81 81 81 81 81 81 81 81 80 79 79 78 78 78 77 76 76 76 77 77 76 77 77 77 78 78 79 79 80 80 81 81 81 81 80 80 80 80 79 79 79 79 80 80 80 81 81 80 78 75 74 75 77 77 78
78 78 79 81 82 82 81 81 81 81 80 79 80 80 80 79 79 79 79 78 77 77 77 76 76 77 77 76 76 77 78 78 79 79 79 79 79 80 80 80 79 78 78 79 79 79 78 79 78 78 79 80 80 80 79 77 74 71 70 74 77 80 82
Wind_Direction
232 231 231 242 253 254 256 258 260 262 264 267 272 274 276 278 280 282 284 287 291 294 296 299 301 303 306 308 310 313 314 315 316 318 320 321 323 323 322 320 319 320 320 322 322 323 324 324 325 325 324 324 323 323 321 320 319 318 316 313 311 310 310
236 238 238 246 254 257 258 260 261 263 265 268 271 273 277 280 281 282 284 286 290 292 295 297 300 302 304 306 309 311 312 313 314 317 319 320 321 320 318 317 318 319 320 322 323 324 324 324 324 325 324 323 322 322 321 318 317 317 316 312 309 308 308
240 242 242 246 252 255 257 260 262 265 268 269 270 272 275 278 280 281 283 286 289 291 293 296 299 301 303 305 307 309 311 312 313 315 317 318 318 317 316 316 317 319 321 323 323 323 323 324 324 323 323 322 321 320 317 315 315 316 315 311 307 306 306
245 245 245 246 249 251 253 257 260 264 266 267 269 272 274 275 277 279 282 285 287 289 292 295 297 299 301 303 305 307 309 310 312 314 315 316 315 314 314 315 317 319 321 321 321 321 322 322 322 321 321 320 319 317 314 313 315 316 314 310 307 305 305
247 248 249 248 249 251 253 256 258 260 263 266 269 271 272 273 275 278 281 283 285 288 290 293 295 297 299 301 303 305 307 309 310 312 313 313 312 312 312 314 316 318 319 319 320 320 321 321 321 319 318 318 317 315 313 313 315 316 312 309 308 306 304
248 247 248 249 251 252 254 256 257 259 262 265 268 270 271 273 275 278 280 282 284 287 289 291 294 295 297 299 301 303 305 307 308 309 310 310 310 310 311 313 315 316 317 318 319 319 319 319 319 318 317 317 316 315 314 313 315 316 312 308 308 308 306
250 248 249 252 254 255 256 257 258 259 261 264 267 269 271 273 275 278 279 281 284 285 288 291 292 294 296 298 299 301 303 305 306 307 307 308 308 308 310 312 313 314 316 316 317 318 318 317 317 316 316 316 315 314 313 313 314 315 313 309 308 308 308
251 250 250 252 254 255 257 258 259 260 261 264 267 269 272 274 276 277 279 281 283 285 288 290 291 293 294 296 297 300 302 303 303 304 305 305 306 307 309 310 311 313 314 315 315 315 315 316 316 316 315 314 314 314 314 314 314 314 313 311 310 309 307
251 251 252 253 253 255 257 259 260 261 263 265 267 269 272 274 276 277 279 281 283 285 287 289 290 292 293 295 296 298 300 300 301 302 302 303 305 306 307 308 310 311 312 313 314 314 315 315 315 315 314 314 315 316 315 315 314 315 315 313 311 308 305
251 251 251 252 253 255 256 258 260 262 264 266 268 270 272 273 275 276 278 280 282 284 286 287 289 291 292 293 295 297 297 298 299 300 301 302 304 305 306 307 308 310 311 312 313 314 314 315 314 314 313 314 315 315 315 315 315 315 315 313 309 306 303
249 250 250 251 253 254 255 257 259 262 265 267 269 270 272 273 274 276 278 279 281 283 285 286 288 289 290 292 294 294 295 296 298 298 299 301 302 303 304 306 307 308 310 311 312 313 313 313 313 312 312 313 313 314 315 315 316 315 314 311 307 304 303
248 250 251 252 253 254 255 256 259 262 264 266 268 270 271 273 274 276 278 280 282 283 284 285 286 288 289 291 292 293 294 295 296 297 299 300 301 302 303 305 307 308 310 311 312 312 312 312 312 311 312 312 312 313 313 313 314 315 313 309 304 298 296
248 250 251 252 253 255 257 258 259 261 263 265 267 268 270 272 274 276 278 280 282 283 284 285 286 287 288 290 291 292 293 294 296 297 298 299 300 302 303 305 307 308 309 310 311 311 311 311 311 310 311 312 311 310 309 309 312 314 312 309 303 297 293
247 250 251 253 254 255 258 259 259 260 262 264 266 267 269 271 273 276 277 279 281 282 283 284 285 286 288 289 290 291 293 294 295 296 297 298 300 302 303 305 306 307 308 309 310 310 310 310 310 309 310 310 309 307 307 308 311 312 312 309 305 302 300
247 249 251 252 254 255 257 258 259 260 261 262 264 266 268 270 272 274 276 278 279 280 281 283 284 285 287 288 289 291 292 294 294 295 296 298 299 301 302 303 304 306 308 309 309 309 308 308 307 307 308 308 309 309 309 311 310 310 312 310 305 304 303
245 248 250 252 253 255 256 257 259 260 261 262 263 265 267 269 271 273 275 276 277 278 280 281 282 284 286 287 288 290 291 292 293 294 295 296 298 299 300 301 304 306 307 308 308 307 307 306 305 306 306 307 311 312 310 310 309 310 312 309 304 305 305
244 246 248 251 253 254 256 258 260 260 260 261 263 265 267 269 271 272 274 275 276 278 279 280 282 284 285 286 287 289 290 290 291 293 294 295 296 297 299 301 303 305 306 306 306 305 305 304 304 305 305 307 310 309 307 309 308 309 310 308 304 306 308
245 246 247 250 252 253 255 258 260 260 260 261 263 264 267 269 270 272 273 275 276 277 278 280 281 283 283 285 286 288 288 289 290 292 292 293 295 296 298 300 302 303 304 304 304 304 304 303 303 304 304 306 308 307 307 309 309 309 309 306 304 307 307
248 248 248 249 252 253 254 256 258 260 261 261 262 264 267 269 270 272 273 274 275 275 277 279 280 281 282 284 285 286 287 288 289 290 292 293 294 296 297 299 300 301 302 302 302 302 302 302 303 304 305 306 308 309 309 310 311 310 307 303 303 306 305
250 250 250 250 252 253 254 256 257 259 260 261 262 265 267 269 270 271 272 273 273 275 276 277 278 280 281 283 284 285 286 287 288 290 291 293 294 295 297 298 299 300 301 301 301 301 301 301 302 303 305 307 309 310 310 311 311 309 305 301 300 301 303
249 251 250 250 251 251 253 254 255 257 258 260 262 264 266 268 269 270 270 271 273 274 275 276 277 278 280 281 282 283 284 286 288 289 291 292 294 295 296 298 299 300 300 300 300 300 300 300 302 304 306 307 309 309 310 311 311 308 301 299 300 301 303
247 248 249 249 250 250 251 252 253 255 256 258 259 261 264 266 267 268 269 270 272 273 274 275 276 278 279 281 282 283 285 286 288 290 291 293 294 295 297 298 299 300 300 300 300 301 301 302 303 305 306 307 308 309 310 310 309 305 300 300 303 304 305
248 247 248 248 248 248 249 251 252 254 255 256 257 259 261 264 265 266 268 269 271 272 274 275 276 278 279 281 282 284 286 287 289 290 292 293 294 295 297 298 299 299 300 300 301 302 303 304 305 306 307 307 308 309 309 309 307 304 303 304 305 306 305
248 246 246 247 246 247 249 250 252 253 255 256 257 258 260 262 263 265 267 268 270 272 274 276 278 279 281 282 283 285 286 288 290 291 292 293 295 296 297 298 299 300 300 301 303 303 304 305 305 306 306 306 308 310 309 307 306 305 305 306 306 305 304
247 245 245 247 247 248 249 251 252 254 256 258 258 258 259 260 262 264 266 268 270 272 274 276 278 279 281 282 284 285 287 288 290 291 292 294 295 296 298 299 300 300 301 302 303 304 304 304 305 305 305 306 308 309 306 304 306 307 306 306 306 305 303
246 246 246 247 249 249 250 252 253 255 257 258 259 259 259 260 262 264 266 268 270 272 274 276 277 279 280 282 284 285 286 288 289 291 292 293 295 296 297 299 300 300 301 302 303 303 303 304 304 304 305 305 307 306 304 305 307 307 306 306 306 304 302
246 246 246 247 249 250 251 253 254 256 257 259 259 260 260 262 263 265 267 269 270 272 274 275 277 279 280 282 283 284 286 287 289 290 291 293 294 295 297 298 298 299 300 301 302 302 302 303 304 304 305 306 306 306 306 307 307 306 306 306 305 302 300
245 246 247 248 249 250 251 253 255 256 258 259 260 261 262 263 265 267 268 269 271 272 274 276 278 279 281 282 283 284 286 287 288 290 291 292 293 295 296 296 297 298 299 300 300 301 302 303 303 304 305 305 306 307 307 306 306 306 305 304 303 301 299
244 246 247 248 249 250 252 254 255 257 258 259 261 262 263 264 266 267 268 270 271 273 274 276 278 279 281 282 282 283 285 287 288 289 290 291 292 293 294 295 295 296 297 298 299 300 301 302 303 303 304 305 306 306 306 306 306 305 304 303 302 299 298
244 246 247 248 249 251 253 254 255 256 258 259 260 262 263 265 266 267 268 269 271 273 274 276 277 279 280 281 282 283 284 286 287 288 290 291 291 292 293 293 294 295 295 296 298 299 300 301 302 303 303 304 305 305 305 304 304 303 302 302 300 297 296
245 246 247 248 250 251 252 253 254 256 257 259 260 262 263 264 265 266 267 269 271 273 274 275 277 278 279 279 280 282 284 285 286 287 289 290 290 291 291 292 293 294 295 296 297 298 299 301 301 302 303 303 304 303 303 302 301 300 300 299 298 296 295
245 246 247 248 249 250 251 253 254 256 257 259 260 261 262 263 264 265 267 269 270 271 273 274 275 277 277 278 279 281 283 284 285 287 288 288 289 290 291 292 292 293 295 296 297 298 299 300 301 301 301 301 301 301 301 300 299 299 299 297 296 295 295
244 245 246 247 249 250 252 253 254 256 257 258 259 260 261 263 264 266 267 268 269 270 271 273 274 275 276 277 279 281 282 284 285 286 287 288 289 290 290 291 292 293 294 296 296 297 299 300 300 299 299 300 300 299 299 299 299 299 299 297 296 296 294
243 244 245 247 248 250 251 253 254 255 257 258 259 261 262 263 265 266 267 268 269 270 271 272 274 274 275 276 278 280 283 284 285 285 286 287 288 289 290 291 292 293 294 295 296 297 298 298 298 298 298 298 298 298 298 298 297 297 297 297 296 294 293
243 244 245 246 248 250 251 253 254 255 257 258 259 261 262 263 264 265 266 268 269 271 272 273 273 273 274 276 279 282 283 283 283 284 285 286 288 289 290 291 292 293 294 295 295 296 297 297 297 297 297 297 297 297 298 297 296 296 295 295 294 293 293
243 244 245 246 248 249 251 252 254 255 256 258 259 260 262 263 264 265 267 268 269 271 272 273 273 273 275 277 280 282 282 282 283 284 285 286 287 289 290 291 292 293 294 294 295 295 295 296 296 296 296 296 296 297 297 296 295 294 293 292 291 290 291
243 244 245 246 248 249 250 252 253 255 256 257 259 260 261 263 264 265 267 268 269 270 271 272 273 274 275 277 278 279 280 281 283 284 285 286 288 289 290 291 291 292 293 293 294 294 295 295 295 295 296 296 296 296 296 295 294 293 292 290 289 289 290
242 243 245 246 247 248 250 251 253 254 256 257 259 260 262 263 265 266 267 268 269 270 271 272 272 273 274 276 277 278 279 281 282 284 285 287 288 288 289 290 291 291 292 293 293 294 295 295 296 296 296 297 297 296 295 293 291 290 288 288 289 290 292
Height
10969 10970 10971 10972 10973 10974 10975 10975 10975 10975 10975 10975 10974 10974 10973 10973 10973 10972 10972 10971 10971 10971 10970 10970 10969 10969 10968 10968 10967 10966 10964 10963 10962 10962 10962 10961 10959 10958 10956 10954 10952 10951 10949 10947 10945 10943 10941 10939 10937 10934 10932 10929 10927 10925 10923 10921 10919 10917 10916 10914 10913 10911 10909
10966 10967 10969 10969 10969 10970 10971 10972 10972 10971 10972 10972 10972 10971 10971 10970 10970 10970 10969 10969 10969 10968 10968 10967 10967 10966 10966 10965 10964 10963 10962 10960 10960 10959 10959 10958 10957 10955 10953 10951 10949 10947 10945 10944 10941 10939 10937 10935 10932 10930 10927 10925 10922 10920 10919 10917 10915 10913 10912 10910 10908 10907 10905
10963 10965 10966 10967 10966 10967 10967 10967 10968 10968 10969 10969 10968 10968 10968 10968 10968 10967 10967 10967 10966 10966 10965 10965 10964 10963 10963 10962 10961 10960 10958 10957 10957 10956 10956 10955 10953 10951 10949 10948 10946 10944 10942 10940 10937 10935 10933 10931 10928 10926 10923 10921 10919 10916 10914 10912 10910 10909 10907 10905 10903 10902 10900
10959 10962 10964 10964 10963 10964 10964 10964 10965 10965 10965 10965 10965 10965 10965 10965 10965 10964 10964 10964 10963 10963 10962 10962 10961 10960 10960 10959 10958 10956 10955 10954 10954 10953 10953 10951 10950 10948 10945 10944 10943 10941 10939 10937 10934 10931 10930 10928 10925 10922 10920 10918 10915 10913 10910 10908 10906 10905 10903 10901 10899 10897 10895
10956 10958 10960 10960 10960 10960 10960 10961 10962 10962 10962 10962 10961 10962 10962 10962 10962 10962 10962 10961 10960 10960 10959 10959 10958 10958 10957 10956 10955 10953 10952 10952 10951 10950 10949 10948 10946 10944 10942 10940 10939 10938 10935 10933 10930 10928 10926 10924 10922 10919 10916 10914 10911 10908 10906 10904 10903 10903 10900 10897 10895 10893 10891
10951 10953 10954 10955 10955 10956 10956 10957 10958 10958 10958 10958 10958 10958 10958 10959 10959 10959 10958 10958 10957 10957 10956 10955 10955 10954 10954 10953 10951 10950 10950 10949 10948 10947 10945 10943 10942 10940 10938 10937 10936 10934 10932 10929 10927 10924 10922 10920 10918 10915 10912 10910 10907 10904 10902 10900 10899 10898 10896 10894 10891 10888 10887
10946 10948 10949 10949 10950 10951 10952 10953 10954 10954 10954 10954 10954 10954 10954 10955 10955 10955 10954 10954 10953 10953 10952 10952 10951 10950 10950 10949 10948 10947 10946 10945 10944 10943 10941 10939 10938 10936 10934 10933 10932 10930 10928 10925 10923 10920 10918 10916 10914 10911 10909 10906 10904 10901 10898 10896 10894 10892 10890 10888 10886 10883 10881
10941 10943 10944 10945 10946 10947 10947 10948 10949 10950 10950 10950 10950 10950 10950 10951 10951 10951 10950 10950 10949 10948 10948 10947 10946 10946 10946 10945 10944 10943 10942 10941 10940 10938 10937 10935 10934 10932 10931 10929 10927 10926 10924 10921 10919 10916 10914 10912 10909 10907 10905 10902 10900 10898 10895 10892 10890 10887 10885 10882 10880 10878 10875
10936 10937 10939 10940 10940 10942 10943 10944 10944 10945 10946 10946 10946 10946 10946 10946 10946 10946 10946 10946 10945 10944 10944 10943 10942 10941 10941 10940 10939 10939 10938 10937 10935 10934 10932 10931 10930 10929 10927 10925 10923 10921 10919 10917 10914 10912 10909 10907 10905 10902 10900 10898 10895 10893 10891 10888 10885 10882 10880 10877 10875 10873 10870
10930 10930 10933 10934 10935 10937 10939 10939 10940 10940 10940 10941 10941 10941 10942 10942 10942 10942 10942 10941 10941 10940 10940 10938 10937 10937 10936 10935 10935 10934 10933 10932 10931 10929 10928 10927 10926 10924 10922 10920 10919 10917 10915 10912 10909 10907 10905 10903 10900 10898 10896 10893 10891 10888 10886 10883 10879 10877 10874 10872 10869 10867 10865
10922 10923 10927 10928 10929 10932 10934 10935 10935 10935 10935 10936 10936 10936 10936 10937 10937 10937 10937 10937 10936 10936 10935 10934 10933 10932 10931 10930 10930 10929 10928 10928 10926 10924 10923 10922 10922 10920 10918 10916 10914 10912 10910 10907 10905 10902 10900 10898 10896 10894 10891 10889 10886 10883 10880 10877 10874 10871 10869 10866 10863 10860 10859
10915 10918 10921 10923 10924 10927 10929 10931 10931 10930 10931 10931 10932 10931 10931 10932 10932 10932 10932 10932 10931 10930 10929 10928 10927 10926 10926 10925 10925 10923 10923 10923 10921 10920 10918 10917 10917 10915 10913 10910 10908 10906 10904 10903 10900 10898 10895 10893 10891 10889 10887 10884 10881 10877 10875 10872 10869 10866 10863 10860 10857 10855 10853
10908 10912 10916 10917 10919 10922 10924 10926 10926 10926 10926 10927 10928 10927 10926 10927 10927 10927 10927 10926 10925 10924 10923 10922 10921 10920 10919 10919 10919 10918 10918 10917 10916 10915 10912 10911 10910 10909 10907 10905 10903 10900 10898 10897 10895 10893 10890 10888 10886 10884 10882 10879 10876 10872 10869 10866 10863 10861 10858 10854 10851 10850 10848
10903 10906 10909 10910 10913 10916 10918 10919 10920 10921 10922 10922 10923 10922 10922 10922 10922 10922 10921 10920 10920 10918 10917 10916 10915 10914 10913 10913 10912 10912 10912 10911 10910 10909 10907 10905 10904 10903 10901 10900 10898 10895 10893 10891 10890 10888 10885 10882 10880 10878 10876 10874 10872 10868 10864 10861 10858 10855 10852 10849 10846 10844 10842
10898 10899 10902 10905 10907 10909 10912 10912 10912 10914 10916 10917 10917 10917 10917 10917 10917 10916 10915 10915 10914 10912 10911 10910 10909 10908 10908 10907 10906 10906 10905 10905 10904 10903 10901 10900 10899 10897 10896 10895 10893 10891 10888 10886 10885 10883 10880 10877 10875 10873 10871 10869 10867 10863 10858 10855 10852 10849 10846 10843 10840 10838 10836
10893 10893 10896 10898 10900 10902 10904 10905 10906 10907 10909 10911 10911 10911 10911 10911 10911 10910 10910 10909 10907 10906 10905 10903 10902 10902 10902 10901 10901 10900 10899 10898 10898 10897 10896 10895 10894 10892 10891 10889 10888 10886 10883 10881 10879 10877 10876 10873 10870 10868 10865 10864 10863 10858 10852 10850 10847 10843 10840 10837 10833 10831 10829
10885 10887 10891 10892 10894 10896 10898 10899 10900 10901 10902 10904 10904 10905 10904 10905 10905 10904 10903 10902 10900 10899 10898 10897 10896 10896 10895 10895 10895 10895 10893 10892 10892 10892 10891 10890 10888 10887 10886 10884 10882 10881 10878 10876 10873 10871 10870 10868 10866 10863 10860 10858 10858 10855 10849 10844 10841 10838 10835 10831 10827 10824 10822
10877 10880 10885 10886 10887 10889 10890 10891 10892 10893 10895 10897 10898 10898 10898 10898 10898 10897 10896 10895 10893 10892 10892 10891 10890 10890 10889 10889 10889 10889 10887 10885 10885 10885 10885 10884 10883 10881 10880 10879 10877 10876 10873 10871 10868 10865 10862 10860 10859 10857 10854 10852 10852 10849 10843 10838 10835 10832 10828 10825 10821 10817 10814
10868 10873 10877 10879 10880 10881 10883 10884 10884 10885 10888 10890 10892 10892 10891 10891 10891 10890 10889 10887 10885 10886 10886 10885 10884 10883 10882 10883 10883 10882 10880 10879 10879 10879 10878 10878 10877 10875 10874 10873 10872 10871 10868 10866 10863 10861 10857 10853 10851 10849 10847 10845 10843 10840 10836 10832 10828 10824 10820 10817 10814 10810 10807
10861 10866 10871 10873 10873 10874 10876 10876 10876 10878 10880 10883 10886 10886 10885 10884 10883 10882 10880 10878 10877 10879 10879 10879 10878 10877 10877 10877 10876 10875 10873 10873 10873 10873 10872 10872 10870 10869 10867 10867 10866 10864 10862 10860 10858 10855 10852 10848 10845 10843 10839 10837 10835 10832 10828 10825 10821 10817 10813 10810 10808 10805 10801
10855 10859 10865 10867 10866 10867 10868 10868 10869 10871 10873 10876 10880 10880 10878 10877 10875 10873 10872 10870 10870 10871 10872 10872 10872 10871 10871 10871 10869 10868 10867 10867 10867 10867 10866 10865 10864 10862 10861 10859 10858 10857 10855 10853 10851 10849 10846 10842 10839 10836 10832 10830 10828 10825 10822 10818 10814 10811 10808 10805 10802 10799 10794
10848 10851 10856 10858 10859 10860 10860 10860 10862 10864 10866 10870 10874 10875 10873 10870 10867 10865 10864 10863 10863 10864 10864 10865 10866 10865 10865 10864 10863 10861 10861 10861 10861 10860 10859 10858 10856 10854 10853 10852 10851 10849 10847 10845 10843 10841 10838 10835 10832 10829 10826 10823 10820 10818 10816 10812 10807 10804 10803 10800 10795 10790 10786
10838 10842 10848 10850 10851 10852 10852 10853 10855 10857 10858 10862 10867 10869 10867 10862 10859 10858 10858 10857 10856 10856 10857 10858 10859 10859 10858 10857 10856 10855 10854 10854 10854 10853 10852 10850 10848 10846 10845 10844 10843 10841 10838 10836 10835 10832 10829 10826 10824 10821 10818 10816 10814 10812 10809 10805 10801 10797 10794 10792 10787 10782 10778
10827 10832 10838 10840 10842 10844 10845 10846 10849 10850 10850 10854 10860 10864 10861 10855 10852 10852 10851 10851 10851 10850 10851 10851 10852 10851 10850 10849 10848 10848 10847 10847 10846 10845 10844 10842 10840 10838 10837 10835 10834 10832 10830 10828 10826 10823 10820 10817 10815 10813 10810 10808 10807 10804 10800 10797 10795 10790 10785 10783 10779 10774 10771
10815 10822 10829 10832 10834 10837 10838 10841 10843 10843 10843 10847 10853 10856 10854 10848 10846 10846 10846 10846 10846 10846 10845 10846 10845 10844 10843 10841 10841 10840 10839 10839 10838 10837 10835 10833 10832 10830 10829 10827 10825 10823 10821 10819 10818 10816 10812 10810 10807 10805 10803 10801 10802 10800 10794 10791 10789 10783 10777 10775 10772 10767 10763
10804 10812 10822 10825 10826 10830 10833 10835 10837 10837 10837 10840 10845 10847 10846 10843 10841 10840 10841 10841 10841 10841 10840 10839 10839 10838 10837 10836 10834 10833 10832 10832 10831 10829 10827 10826 10824 10823 10821 10819 10817 10815 10813 10811 10811 10809 10806 10803 10801 10798 10795 10793 10794 10794 10789 10784 10780 10774 10769 10767 10764 10760 10756
10793 10801 10811 10816 10820 10824 10827 10827 10829 10830 10832 10834 10836 10837 10838 10837 10836 10836 10836 10836 10836 10835 10834 10833 10832 10832 10831 10829 10828 10826 10825 10825 10824 10822 10820 10818 10817 10816 10815 10812 10810 10809 10806 10804 10803 10802 10799 10797 10794 10790 10788 10785 10783 10782 10780 10775 10771 10766 10761 10759 10757 10753 10749
10784 10793 10803 10810 10814 10816 10817 10819 10822 10824 10825 10826 10827 10829 10830 10831 10830 10830 10830 10830 10830 10829 10828 10827 10826 10825 10823 10822 10821 10820 10818 10817 10816 10814 10813 10811 10810 10809 10808 10805 10803 10802 10800 10797 10795 10794 10792 10790 10786 10783 10780 10778 10775 10772 10770 10766 10763 10758 10753 10751 10749 10746 10742
10780 10788 10797 10803 10804 10805 10809 10813 10816 10816 10817 10818 10820 10822 10823 10824 10824 10824 10823 10823 10823 10823 10822 10821 10820 10818 10816 10814 10813 10813 10811 10809 10808 10807 10806 10804 10803 10802 10801 10799 10797 10795 10793 10791 10788 10786 10784 10782 10779 10775 10772 10769 10767 10764 10760 10757 10753 10749 10745 10742 10741 10738 10734
10777 10782 10788 10793 10796 10799 10803 10806 10807 10807 10808 10810 10812 10813 10815 10816 10817 10816 10815 10815 10816 10816 10815 10814 10813 10812 10809 10805 10803 10804 10805 10803 10801 10800 10799 10798 10796 10795 10794 10793 10791 10788 10786 10784 10782 10778 10776 10774 10770 10767 10763 10761 10759 10756 10752 10748 10744 10740 10737 10734 10732 10729 10725
10771 10776 10781 10785 10789 10792 10793 10795 10798 10799 10800 10801 10803 10805 10807 10808 10807 10807 10808 10809 10809 10809 10808 10806 10805 10804 10801 10796 10795 10796 10797 10797 10795 10793 10792 10791 10790 10788 10787 10785 10783 10781 10779 10777 10774 10771 10769 10767 10763 10758 10755 10753 10751 10748 10745 10740 10735 10731 10729 10727 10723 10720 10716
10765 10770 10772 10775 10778 10780 10783 10787 10790 10791 10792 10793 10794 10796 10797 10797 10798 10799 10801 10802 10801 10801 10800 10799 10797 10795 10792 10788 10788 10789 10790 10789 10787 10786 10785 10784 10783 10781 10779 10777 10775 10773 10771 10769 10766 10763 10762 10760 10756 10751 10747 10745 10743 10740 10736 10732 10726 10723 10721 10719 10715 10711 10706
10756 10759 10762 10765 10768 10772 10775 10779 10782 10783 10784 10784 10785 10785 10786 10788 10790 10792 10793 10793 10792 10792 10792 10791 10790 10787 10784 10781 10780 10781 10781 10781 10779 10778 10777 10776 10775 10773 10771 10769 10767 10766 10764 10761 10758 10755 10754 10752 10748 10743 10739 10736 10734 10731 10727 10722 10718 10714 10712 10709 10706 10702 10697
10746 10750 10754 10757 10761 10764 10767 10770 10773 10775 10775 10775 10776 10777 10778 10780 10782 10783 10783 10783 10783 10783 10783 10783 10782 10779 10776 10773 10773 10773 10773 10772 10772 10770 10769 10769 10766 10764 10763 10762 10759 10757 10756 10753 10750 10747 10746 10744 10740 10735 10730 10727 10725 10722 10718 10713 10709 10705 10702 10700 10697 10694 10689
10738 10741 10746 10749 10752 10755 10758 10761 10764 10766 10766 10767 10768 10769 10770 10771 10773 10774 10774 10774 10774 10773 10774 10774 10773 10771 10768 10765 10765 10765 10764 10763 10763 10762 10762 10761 10758 10755 10755 10754 10751 10749 10747 10744 10741 10739 10737 10735 10731 10725 10721 10717 10715 10713 10709 10705 10701 10697 10693 10690 10687 10684 10680
10730 10734 10738 10741 10744 10747 10750 10752 10755 10756 10758 10759 10759 10760 10761 10762 10764 10765 10765 10765 10765 10765 10764 10764 10764 10763 10761 10759 10758 10757 10755 10754 10754 10754 10753 10752 10750 10747 10746 10745 10743 10740 10738 10735 10732 10730 10729 10726 10722 10716 10711 10708 10705 10703 10699 10695 10692 10689 10684 10679 10676 10673 10671
10724 10727 10730 10733 10736 10738 10741 10743 10745 10747 10749 10750 10751 10752 10753 10754 10756 10756 10756 10757 10757 10757 10756 10756 10755 10754 10753 10752 10750 10747 10746 10746 10745 10744 10744 10744 10742 10739 10738 10736 10734 10732 10729 10725 10723 10722 10720 10717 10712 10707 10703 10698 10695 10692 10689 10686 10684 10681 10675 10669 10665 10664 10663
10715 10718 10721 10724 10727 10729 10732 10734 10736 10738 10740 10741 10742 10742 10744 10745 10747 10747 10748 10748 10749 10748 10748 10747 10746 10745 10745 10744 10742 10739 10738 10738 10737 10736 10736 10735 10733 10730 10729 10727 10726 10725 10722 10717 10714 10713 10711 10707 10704 10700 10695 10690 10685 10681 10678 10675 10675 10672 10667 10661 10658 10656 10655